User: anonymous   Login
Location: Moonridge Observatory
(39.2268°N, 77.7914°W)
Time: 19:40:21
(UTC-05:00)
Language:

CZ-2C R/B - Orbit

View from above orbital plane
View from above orbital plane
View from above satellite
View from above satellite

Ground track
Ground track

The orbit data is extracted from the following two-line orbital elements,

1 28480U 04046B   18020.89549979 +.00000024 +00000-0 +25142-4 0  9991
2 28480 098.1887 108.0218 0140891 302.3278 187.1960 14.25663610685233
Epoch (UTC): 20 January 2018 21:29:31
Eccentricity: 0.0140891
inclination: 98.1887°
perigee height: 705 km
apogee height: 907 km
right ascension of ascending node: 108.0218°
argument of perigee: 302.3278°
revolutions per day: 14.25663610
mean anomaly at epoch: 187.1960°
orbit number at epoch: 68523

The dashed part of the orbit path shows where the satellite is in the earth's shadow,  

DLR